DW8885 Weather Reports


time (UTC)temp
F
wind
direction
speed
knots
gust
knots
rain 1hr
in
rain 24hr
in
rain mn
in
humidity
%
barometer
mb
20260505041533 60 215 3.5 9.6 0.00 0.07 0.00 75 998.0
20260505040003 62 205 1.7 7.8 0.00 0.07 0.07 70 997.4
20260505034534 63 117 2.6 10.4 0.00 0.07 0.07 70 997.3
20260505033005 62 227 4.3 14.8 0.00 0.07 0.07 75 997.3
20260505031541 62 181 4.3 11.3 0.00 0.07 0.07 77 997.7
20260505030007 61 159 3.5 17.4 0.00 0.07 0.07 80 997.5
20260505024539 60 167 4.3 10.4 0.00 0.07 0.07 82 997.6
20260505023013 60 191 1.7 7.8 0.00 0.07 0.07 81 997.4
20260505021544 60 163 4.3 9.6 0.00 0.07 0.07 81 996.9
20260505020010 60 161 3.5 8.7 0.03 0.07 0.07 82 997.2
20260505014549 58 205 2.6 10.4 0.06 0.07 0.07 85 997.5
20260505013012 58 148 1.7 7.8 0.07 0.07 0.07 85 997.3
20260505011547 58 222 3.5 8.7 0.07 0.07 0.07 85 997.9
20260505010025 58 169 0.9 8.7 0.04 0.04 0.04 82 997.2
20260505004547 59 126 2.6 7.0 0.01 0.01 0.01 76 998.0
20260505003017 65 167 10.4 17.4 0.00 0.00 0.00 66 997.4
20260505001548 65 147 1.7 4.3 0.00 0.00 0.00 76 996.3
20260505000019 65 173 1.7 6.1 0.00 0.00 0.00 75 996.3
20260504234543 65 194 3.5 12.2 0.00 0.00 0.00 72 996.5
20260504233013 66 236 4.3 16.5 0.00 0.00 0.00 76 996.9
20260504231547 67 218 3.5 11.3 0.00 0.00 0.00 72 996.6
20260504230015 66 228 0.9 8.7 0.00 0.00 0.00 74 996.5
20260504224547 67 179 5.2 12.2 0.00 0.00 0.00 63 997.2
20260504223016 70 211 3.5 13.0 0.00 0.00 0.00 49 996.9
20260504221601 73 220 3.5 9.6 0.00 0.00 0.00 43 996.7
20260504220018 75 200 2.6 7.0 0.00 0.00 0.00 42 996.7
20260504214600 76 200 1.7 8.7 0.00 0.00 0.00 41 996.8
20260504213020 76 153 3.5 6.1 0.00 0.00 0.00 38 996.9
20260504211552 76 225 3.5 7.0 0.00 0.00 0.00 38 997.0
20260504210023 74 255 3.5 7.0 0.00 0.00 0.00 41 997.4
20260504204559 73 238 2.6 7.0 0.00 0.00 0.00 44 997.6
20260504203028 72 159 3.5 8.7 0.00 0.00 0.00 48 997.8
20260504201557 72 186 3.5 8.7 0.00 0.00 0.00 49 998.1
20260504200026 73 216 5.2 8.7 0.00 0.00 0.00 51 998.2
20260504194600 74 141 1.7 10.4 0.00 0.00 0.00 51 998.2
20260504193029 75 200 2.6 7.8 0.00 0.00 0.00 50 998.3
20260504191604 74 186 2.6 7.8 0.00 0.00 0.00 50 998.3
20260504190031 73 221 4.3 8.7 0.00 0.00 0.00 50 998.7
20260504184602 72 196 3.5 7.8 0.00 0.00 0.00 50 999.1
20260504183032 71 159 2.6 11.3 0.00 0.00 0.00 51 999.2
20260504181505 70 234 3.5 9.6 0.00 0.00 0.00 53 999.4
20260504180042 70 242 3.5 9.6 0.00 0.00 0.00 53 999.4
20260504174505 70 221 2.6 8.7 0.00 0.00 0.00 52 999.5
20260504173037 71 256 4.3 10.4 0.00 0.00 0.00 50 999.6
20260504171507 69 199 6.1 12.2 0.00 0.00 0.00 49 999.9
20260504100113 50 173 0.9 9.6 0.00 0.00 0.00 82 1002.2
20260504081535 52 173 1.7 7.8 0.00 0.00 0.00 78 1002.4
20260504060111 54 136 1.7 8.7 0.00 0.00 0.00 75 1003.9
20260504044558 54 125 3.5 13.0 0.00 0.00 0.00 72 1004.6
20260504043028 54 168 4.3 11.3 0.00 0.00 0.00 72 1004.6